Location: Jalan Sepang
(2.8072°N, 101.8021°E)
Time: 08:13:09
(UTC+00:00)

Daily predictions for brighter satellites

Satellite Brightness Start Highest point End
(mag) Time Altitude Azimuth Time Altitude Azimuth Time Altitude Azimuth
FALCON 9 R/B 4.0 12:00:25 10° W 12:05:55 49° NNW 12:25:40 10° NE
Thor Agena Rocket 4.3 12:01:13 10° S 12:06:11 53° WSW 12:11:05 10° NNW
SJ-6B 4.5 12:08:52 14° ENE 12:08:52 14° ENE 12:10:11 10° NE
Cosmos 2123 Rocket 4.4 12:02:47 10° N 12:09:02 68° W 12:15:16 10° S
ATLAS 2A CENTAUR R/B 3.3 12:05:59 10° WSW 12:10:03 89° SSE 12:19:58 10° ENE
GPS 2-17 Rocket1 3.5 12:08:22 10° SW 12:12:16 36° SSE 12:14:06 24° ESE
Cosmos 1862 2.8 12:09:00 10° N 12:12:30 73° E 12:16:03 10° S
PSLV R/B 3.9 12:21:55 30° ESE 12:23:17 39° ENE 12:27:09 10° N
OAO 1 Rocket 4.3 12:21:53 10° SW 12:27:10 71° SE 12:30:56 19° ENE
Cosmos 1459 Rocket 3.9 12:23:48 10° S 12:30:04 66° E 12:36:13 10° NNE
Meteor 1-27 4.5 12:25:59 10° SSE 12:31:25 44° E 12:36:45 10° NNE
Ariane H10+ 1.4 12:28:55 10° WSW 12:31:55 52° SSE 12:32:37 45° SE
Centaur D-1A AC-31 4.4 12:25:57 10° SSW 12:33:08 37° SE 22:28:17 10° E
CZ-2D R/B 3.1 12:32:12 25° S 12:34:21 86° WSW 12:38:08 10° NNW
Cosmos 1375 Rocket 4.4 12:28:50 10° SSW 12:35:09 75° ESE 12:41:33 10° NNE
Tiangong -2.3 12:32:22 10° SW 12:35:29 88° NW 12:35:29 88° NW
Cosmos 1697 Rocket 4.2 12:32:42 10° NNE 12:35:42 19° ENE 12:35:42 19° ENE
ATLAS 5 CENTAUR R/B 4.3 12:32:19 10° WNW 12:37:17 27° WSW 12:42:49 10° S
Cosmos 1802 Rocket 4.0 12:32:32 10° S 12:38:39 54° E 12:44:39 10° NNE
Sich 1 Rocket 3.7 12:35:27 10° S 12:39:48 74° W 12:44:08 10° N
Ariane H10+ 3.2 12:30:43 10° W 12:41:10 74° N 12:42:04 49° ENE
Cosmos 2346 Rocket 4.4 12:34:55 10° N 12:41:10 86° E 12:47:13 11° S
SL-8 R/B 3.7 12:36:32 10° NW 12:41:13 77° SW 12:42:40 44° SSE
Ariane H10+ 3.7 12:41:18 10° SW 12:41:28 11° SW 12:41:28 11° SW
SAR-Lupe-4 3.7 12:43:14 48° SSW 12:44:02 67° WSW 12:47:30 10° NNW
COSMOS 2406 3.1 12:39:04 10° S 12:44:47 71° ESE 12:50:28 10° NNE
SJ-7 4.5 12:44:26 37° SSW 12:45:43 64° WSW 12:49:23 10° NNW
Cosmos 1864 Rocket 4.4 12:44:27 10° S 12:50:46 76° E 12:57:06 10° N
GMS 1 Rocket B 4.2 12:47:54 10° WSW 12:52:02 80° NW 12:52:02 80° NW
Resurs 01 Rocket 2.6 12:50:37 16° SSW 12:53:49 43° WSW 12:57:57 10° NNW
Cosmos 2100 Rocket 4.4 12:47:50 10° SSW 12:53:55 61° W 13:00:02 10° N
NOAA 6 4.5 12:50:30 17° S 12:54:19 58° WSW 12:59:17 10° NNW
GPS 2-12 Rocket1 3.7 12:52:50 10° NW 12:56:44 40° NNE 12:56:44 40° NNE
Cosmos 1992 Rocket 4.0 12:52:14 10° SSW 12:57:27 80° WNW 13:02:37 10° N
ARIANE 5 DEB (SYLDA) 3.4 12:52:18 10° W 12:57:43 54° SSW 12:57:43 54° SSW
Aurora 2 Rocket 4.2 12:57:19 10° WSW 12:58:41 17° SW 12:58:41 17° SW
deb Olympus 3.9 12:56:36 10° W 12:59:58 66° N 13:02:31 38° ENE
ARIANE 5 R/B 2.6 12:40:53 10° W 13:00:54 55° S 13:01:41 51° SSE
Cosmos 2233 Rocket 4.3 13:04:21 46° ENE 13:04:21 46° ENE 13:09:09 10° NNE
ARIANE DEB (SPELDA) 3.4 12:59:57 10° W 13:03:26 88° N 13:05:45 47° E
Cosmos 1455 Rocket 3.6 13:09:51 55° WSW 13:10:06 56° W 13:14:24 10° N
Ariane H10 3.1 13:07:03 10° W 13:10:23 86° S 13:10:50 75° E
SL-08 R/B 4.3 13:12:12 71° SSE 13:12:52 80° E 13:19:08 10° N
ARIANE 44LP R/B 3.3 13:01:23 10° W 13:13:16 57° N 13:13:29 56° N
SJ 16-02 4.2 13:17:38 10° WNW 13:19:16 12° W 13:20:55 10° SW
Cosmos 1725 Rocket 4.4 13:16:30 10° SSW 13:22:41 59° W 13:28:49 10° N
Delta 202 4.2 13:26:10 10° WNW 13:30:14 54° NW 13:30:14 54° NW
USA 229 DEB 4.1 13:35:14 10° NNW 13:42:53 73° NNE 13:42:53 73° NNE
USA 229 4.1 13:35:18 10° NNW 13:42:52 71° NNE 13:42:52 71° NNE
ATLAS 3B R/B 4.1 14:10:19 10° NNW 14:13:44 31° NNW 14:13:44 31° NNW
USA 267 4.0 20:15:18 10° NE 20:20:23 48° E 20:20:23 48° E
CZ-3 Stage 3 4.1 20:19:49 35° NNW 20:23:05 52° NE 20:46:23 10° ESE
Cosmos 1943 Rocket 3.7 20:25:13 32° NE 20:25:13 32° NE 20:28:31 10° NNE
ATLAS 5 CENTAUR R/B 4.4 20:35:48 52° SW 20:40:12 59° S 21:45:54 10° ESE
Ariane H10+ 4.4 20:37:27 49° WNW 20:42:57 79° N 20:58:23 10° E
Hubble Space Telescope 3.7 20:48:42 11° ESE 20:48:42 11° ESE 20:48:53 10° ESE
Cosmos 2181 Rocket 4.5 20:47:37 44° SE 20:49:04 55° E 20:55:00 10° NNE
Meteor 2-13 Rocket 4.5 20:53:07 70° N 20:53:07 70° N 20:58:28 10° N
Cosmos 1610 Rocket 4.5 20:47:28 10° N 20:53:44 80° E 20:54:25 71° SSE
Cosmos 2278 Rocket 2.3 20:56:51 73° NE 20:56:51 73° NE 21:02:02 10° NNE
H-2A R/B 4.4 20:57:00 10° N 20:57:44 15° N 20:57:44 15° N
USA 238 DEB 3.3 21:00:46 74° SE 21:01:04 76° ESE 21:06:57 10° NNE
USA 238 3.3 21:00:54 72° SE 21:01:16 74° ESE 21:07:09 10° NNE
SL-16 R/B 4.2 20:58:02 10° SE 21:03:29 32° ENE 21:08:54 10° NNE
Meteor 2-5 Rocket 3.5 21:08:24 84° SSW 21:08:34 87° W 21:14:04 10° N
Exosat Rocket 3.8 21:12:12 60° NW 21:12:12 60° NW 21:16:48 10° N
USA 59 Rocket 0.9 21:10:31 46° S 21:12:16 68° ESE 21:17:04 10° NNE
ASC 2 Rocket 3.2 21:13:56 68° ENE 21:13:56 68° ENE 21:18:18 10° ENE
Cosmos 1703 Rocket 4.0 21:16:56 44° SE 21:17:58 57° E 21:22:11 10° NNE
BREEZE-M DEB (TANK) 2.8 21:20:26 70° E 21:20:26 70° E 21:26:12 10° NE
Cosmos 1867 3.5 21:18:41 10° NNW 21:24:06 84° ENE 21:29:30 10° SSE
Meteor 1-24 Rocket 4.1 21:26:33 41° WNW 21:26:33 41° WNW 21:30:55 10° NNW
ATLAS 2AS CENTAUR R/B 2.6 21:20:16 10° NNW 21:27:06 78° WSW 21:34:08 10° SSE
NOSS 2-1 (C) 4.4 21:26:44 25° SSW 21:30:44 74° ESE 21:35:41 10° NNE
Palapa 6 Rocket 4.4 21:31:56 29° S 21:31:56 29° S 21:35:28 10° SE
GPS 2-15 Rocket1 2.9 21:31:05 58° WNW 21:31:58 87° NNE 21:36:32 10° ESE
CZ-2C R/B 2.5 21:30:10 10° N 21:34:21 45° WNW 21:34:21 45° WNW
Cosmos 1048 Rocket 4.0 21:33:57 49° WSW 21:34:38 53° WNW 21:39:34 10° N
Cosmos 1939 Rocket 2.5 21:34:10 10° N 21:37:56 83° WNW 21:38:47 53° SSW
Delta 198 4.3 21:38:43 21° NNW 21:40:39 37° NNE 21:44:00 10° E
Cosmos 2341 Rocket 3.9 21:36:13 10° N 21:42:29 84° W 21:48:44 10° S
Nadezhda 3 Rocket 3.9 21:37:11 10° S 21:43:24 89° E 21:49:33 10° N
Centaur D AC-25 4.2 21:46:52 14° NW 21:48:05 16° NNW 21:50:26 10° NNE
SL-8 Rocket 3.9 21:42:49 10° N 21:48:55 68° W 21:55:02 10° S
Cosmos 2218 Rocket 4.0 21:46:39 10° N 21:53:01 80° W 21:59:23 10° S
IUS-13 SRM-1 3.0 21:55:24 19° NNW 21:55:45 20° NNW 21:58:10 10° NE
Cosmos 2369 Rocket 4.1 21:58:42 10° SSE 22:03:29 29° ESE 22:08:13 10° NE
SL-12 R/B(2) 4.0 21:59:48 15° SW 22:05:40 57° WNW 22:13:09 10° N
SEDSat Delta rocket 4.2 22:01:50 10° NW 22:06:29 44° NNE 22:10:38 10° ESE
Cosmos 1943 Rocket 4.1 22:06:45 11° WNW 22:06:45 11° WNW 22:08:23 10° NW
USA 281 4.1 22:02:58 10° SSW 22:08:03 24° WSW 22:13:08 10° WNW
Cosmos 1833 Rocket 3.8 22:03:36 10° N 22:08:59 48° ENE 22:14:22 10° SSE
OAO 2 Rocket 4.0 22:09:16 18° W 22:12:19 37° NW 22:16:48 10° NNE
Cosmos 1733 Rocket 4.1 22:10:15 10° NW 22:13:40 23° W 22:17:05 10° SSW
Cosmos 1420 Rocket 3.9 22:08:40 10° NNW 22:13:52 86° WSW 22:19:02 10° S
Cosmos 44 Rocket 4.0 22:09:49 10° N 22:14:43 59° ENE 22:19:26 10° SSE
Cosmos 1908 Rocket 4.0 22:11:53 10° N 22:16:15 66° E 22:20:39 10° SSE
H-2A R/B 3.2 22:13:18 10° NNE 22:17:06 86° ESE 22:20:53 10° S
Lacrosse 5 rocket 3.0 22:15:10 10° S 22:18:14 25° ESE 22:21:13 10° ENE
ARIANE 5 R/B 1.3 22:17:40 13° W 22:20:36 81° N 22:25:02 10° E
Cosmos 1656 Rocket 3.7 22:18:31 10° SSW 22:23:47 54° WNW 22:29:01 10° N
Hubble Space Telescope 0.8 22:22:44 14° WSW 22:25:47 55° NNW 22:29:28 10° NE
IUS R/B (1) 2.9 22:28:03 10° W 22:30:21 22° SSW 22:32:22 10° SSE
Aureole 3 4.4 22:30:21 10° SSE 22:33:49 48° E 22:37:58 10° NNE
Cosmos 1315 Rocket 2.6 22:30:38 10° N 22:34:22 90° NE 22:38:08 10° S
SWAS 4.4 22:35:02 10° SSW 22:38:55 53° WNW 22:42:49 10° N
CZ-4 R/B 3.9 22:36:56 10° N 22:41:49 72° WNW 22:46:46 10° SSW
CZ-3 R/B 2.2 22:31:48 10° WNW 22:47:17 78° SSW 22:52:28 10° SE
ARIANE 5 R/B 4.2 22:19:46 10° W 23:09:06 78° S 23:13:59 10° E
